SCP
1 1 0 0 0 0 0 0 0 0 0 0 0 0 1 1 0 0 0 0 0 0 0 0 0 0 0 0 0 0 0 0 0 1 1 1 1 1 1 1 1 1 1 1 1 1 1 1 1
1 1 0 0 0 0 0 0 0 0 0 0 0 0 1 0 0 0 0 0 0 0 0 0 1 0 0 0 0 0 0 0 1 1 1 1 1 1 1 1 1 1 1 1 1 1 0 1 1
1 1 0 0 0 0 0 0 0 0 0 0 0 0 0 0 0 0 0 0 0 1 0 0 1 1 0 0 0 0 0 0 1 1 1 1 1 1 1 1 1 1 1 1 0 0 0 0 0
1 0 0 0 0 0 0 0 0 0 0 0 0 0 0 0 0 0 0 0 1 1 1 1 1 1 1 0 0 0 0 0 1 1 1 1 1 1 1 1 1 1 1 1 1 0 0 0 0
0 0 0 0 0 0 0 0 0 0 0 1 1 0 0 0 0 0 0 1 1 1 1 1 1 1 1 0 0 0 0 0 0 1 1 1 1 1 1 1 1 1 1 1 1 1 1 1 0
0 0 0 0 0 0 0 0 0 0 0 1 1 0 0 1 1 1 1 1 1 1 1 1 1 1 1 1 1 0 0 0 0 1 1 1 1 1 1 1 1 1 1 1 1 1 1 1 1
0 0 0 0 0 0 0 0 0 0 0 1 1 0 0 1 1 1 1 1 1 2 2 2 1 1 1 1 1 1 1 0 0 1 1 1 1 1 1 1 1 1 1 1 2 1 1 1 1
0 0 0 0 0 0 0 0 0 0 0 1 1 1 1 1 1 2 2 2 2 2 2 2 2 1 1 1 1 1 1 1 1 1 1 1 1 1 1 1 1 1 1 1 2 1 1 1 1
0 0 0 0 0 0 0 0 0 1 1 1 1 1 1 1 1 2 2 2 2 2 2 2 2 1 1 1 1 1 1 1 1 1 1 1 0 0 0 1 1 1 1 1 1 1 1 1 1
0 0 0 0 0 0 0 0 1 1 1 1 1 1 2 2 2 2 2 2 2 1 1 2 1 1 1 1 1 1 1 1 1 1 0 0 0 0 0 0 0 1 0 0 0 0 0 0 0
0 0 0 0 0 0 1 1 0 1 1 1 1 2 2 2 2 1 2 2 2 1 1 1 1 1 1 1 1 1 1 0 0 0 0 0 0 0 0 0 0 0 0 0 0 0 0 0 0
0 0 0 0 0 0 0 0 0 0 0 1 1 2 2 2 1 1 1 1 2 2 1 1 1 1 1 1 1 1 0 0 0 0 0 0 0 0 0 0 0 0 0 0 0 0 0 0 0
0 0 0 0 0 0 0 0 0 0 0 1 1 1 1 1 1 1 1 1 2 2 1 1 1 1 1 1 1 1 0 0 1 1 0 0 0 0 0 0 0 0 0 0 0 0 0 0 0
1 0 0 0 0 0 0 0 0 0 1 1 1 1 1 1 1 1 1 1 1 1 1 1 1 1 1 1 1 0 0 0 0 0 0 0 0 0 0 0 0 0 0 0 0 0 0 0 0
1 1 0 0 0 0 0 0 0 0 1 1 1 1 1 1 1 1 1 1 1 1 1 1 1 1 1 1 1 0 0 0 0 0 0 0 0 0 0 0 0 0 0 0 0 0 0 0 0
1 1 0 0 0 0 0 0 0 1 1 1 1 1 0 1 1 1 1 1 1 1 1 1 1 1 1 1 1 1 0 1 1 1 0 0 1 1 0 0 0 0 0 0 0 0 0 0 0
0 0 0 0 0 0 0 0 0 1 1 1 1 1 0 0 1 1 1 1 1 1 1 1 1 1 1 1 1 0 0 1 1 0 0 0 1 1 0 0 0 0 0 0 0 0 0 0 0
0 0 0 0 0 0 0 0 0 1 1 1 1 1 1 1 1 1 1 1 1 1 1 1 1 1 1 1 1 1 0 0 0 0 0 0 0 0 0 0 0 0 0 0 0 0 0 0 0
0 0 0 0 0 0 0 0 0 1 1 1 0 0 1 1 1 1 1 1 2 2 1 1 1 1 1 1 1 1 1 1 0 0 0 0 0 0 0 0 0 1 1 0 0 0 0 0 0
0 0 0 0 0 0 0 0 0 0 0 0 0 0 1 1 1 1 1 1 2 2 2 1 1 1 1 1 1 1 1 1 0 0 0 0 0 0 0 0 0 0 1 0 0 0 0 0 0
0 0 0 0 0 0 0 0 0 0 0 0 0 0 1 1 1 1 1 1 2 2 2 2 1 1 1 1 1 1 1 1 1 0 0 0 0 0 0 0 0 0 0 0 0 0 0 0 0
0 0 0 0 0 0 0 0 0 0 0 0 0 0 0 1 1 1 1 1 2 2 2 2 1 1 1 1 1 1 1 1 1 0 0 0 0 0 0 0 0 0 0 0 0 0 0 0 0
0 0 0 0 0 0 0 0 0 0 0 0 0 0 1 1 1 1 1 1 2 2 2 2 1 1 1 1 1 1 1 1 0 1 1 1 0 0 0 0 0 0 0 0 0 0 0 0 0
0 0 0 0 0 0 0 0 0 0 0 0 0 1 1 1 1 1 2 2 2 2 2 2 1 1 1 1 1 1 1 0 0 1 1 1 1 1 0 0 0 0 0 0 0 0 0 0 0
0 0 0 0 0 0 0 0 0 0 0 0 0 0 1 1 1 1 2 2 3 3 2 2 2 2 1 1 1 1 1 0 0 1 1 1 2 1 0 0 0 0 0 0 0 0 0 0 0
0 0 0 0 0 0 0 0 0 0 0 0 0 0 0 0 1 1 1 2 2 2 2 2 2 2 1 1 1 1 0 0 0 0 1 1 2 1 1 0 0 0 0 0 0 0 0 0 0
0 0 0 0 0 0 0 0 0 0 0 0 0 0 0 0 1 1 1 2 2 2 2 3 2 2 1 1 1 1 0 0 0 0 0 1 1 1 0 0 0 0 0 0 0 0 0 0 0
0 0 0 0 0 0 0 0 0 0 0 0 0 0 0 0 1 1 1 2 2 3 3 3 2 2 1 1 1 1 0 0 0 0 0 0 0 0 0 0 0 0 0 0 0 0 0 0 0
0 0 0 0 0 0 0 0 0 0 0 0 0 0 0 0 1 1 2 2 3 3 3 3 2 2 1 1 1 0 0 0 0 0 0 0 0 0 0 0 0 0 0 0 0 0 0 0 0
0 0 0 0 0 0 0 0 0 0 0 0 0 0 0 0 1 1 2 3 3 4 4 3 2 2 1 1 1 0 0 0 0 0 0 0 0 0 0 0 0 0 0 0 0 0 0 0 0
Wind_Speed
4 3 2 4 7 6 3 1 1 3 4 4 8 9 8 6 5 5 2 5 7 4 3 4 7 8 9 9 10 10 10 10 11 11 12 12 12 12 12 12 12 12 12 12 11 11 10 9 9
2 1 4 5 6 4 2 1 3 4 5 6 8 8 7 6 4 5 3 6 7 6 3 5 7 8 9 9 9 10 10 10 10 11 12 12 12 12 12 12 12 12 11 11 11 10 10 10 9
2 1 4 5 4 4 2 1 4 4 4 4 5 5 5 4 3 4 6 8 7 5 3 5 8 8 8 9 9 9 9 10 10 11 12 12 12 12 11 11 11 11 11 11 10 10 10 10 9
3 4 5 6 5 2 4 3 4 5 5 6 6 6 4 2 3 5 9 9 8 5 3 5 8 9 8 8 8 9 9 10 10 11 11 11 11 11 11 10 10 10 10 10 10 10 10 9 9
4 5 6 4 3 1 2 3 5 6 4 5 7 6 3 2 5 9 10 9 8 5 3 4 8 8 8 8 8 8 9 9 10 10 11 10 10 10 10 10 10 10 10 10 9 9 10 10 10
5 5 5 3 3 2 2 5 7 7 6 6 7 5 2 2 6 7 8 8 7 6 4 4 8 8 8 8 8 8 8 9 9 10 10 10 10 10 9 9 9 9 9 9 9 9 9 10 10
5 4 4 4 4 4 3 3 6 6 5 4 6 6 2 2 4 7 8 7 6 6 5 3 3 5 7 7 8 8 8 8 9 9 9 9 9 9 8 8 8 8 8 8 8 8 8 9 9
5 5 4 2 4 3 2 3 5 7 4 4 5 7 5 5 5 7 7 6 5 5 4 4 3 3 3 3 6 7 7 8 8 8 8 8 7 7 7 6 7 7 7 7 7 7 8 9 9
5 6 3 2 4 2 3 5 3 4 6 4 3 5 6 8 7 7 6 4 4 4 3 3 3 2 2 2 4 4 5 6 6 5 7 5 3 3 3 4 6 6 7 6 7 7 8 9 9
5 4 2 3 5 4 3 5 4 5 6 5 4 5 7 7 7 7 6 5 5 5 4 4 3 3 2 2 2 1 2 2 2 2 2 2 2 2 3 4 5 6 6 6 7 7 7 6 4
4 4 2 2 4 5 4 3 4 7 4 4 7 8 7 6 5 5 5 5 5 5 5 5 4 4 3 2 2 1 1 1 2 2 2 2 2 2 2 2 3 3 4 3 4 5 3 4 3
4 2 3 3 4 5 4 3 4 4 4 6 9 10 8 7 6 5 5 3 3 4 4 5 5 4 3 3 2 2 1 1 1 1 3 2 2 2 1 1 1 1 1 2 2 2 3 4 4
3 2 2 3 4 5 6 4 5 3 3 7 9 9 7 6 4 4 4 4 4 4 4 4 4 4 3 3 2 2 2 2 2 1 2 3 2 2 1 1 1 1 1 1 2 2 3 3 3
3 3 1 2 4 4 7 4 5 1 6 9 9 8 7 7 6 5 4 3 3 3 3 3 4 4 4 3 2 2 2 2 2 2 2 2 2 2 2 1 1 1 1 1 2 2 2 2 3
3 3 2 1 2 2 6 4 1 3 6 8 7 7 6 5 6 5 5 5 4 3 3 4 4 4 4 3 3 2 2 2 2 1 2 2 2 3 2 2 1 1 1 2 2 3 2 3 3
3 3 0 3 1 2 6 2 3 3 8 7 5 5 5 4 4 4 5 4 4 3 3 3 4 4 3 3 2 2 2 3 2 2 1 2 2 3 2 2 1 1 1 2 2 2 2 2 2
2 1 2 2 1 2 4 3 3 3 6 6 5 5 5 4 3 3 4 4 4 4 4 4 4 4 3 2 2 2 2 2 2 2 1 2 2 3 2 2 1 2 2 1 2 2 2 2 2
3 2 2 3 2 3 3 3 2 3 6 6 5 4 4 4 4 4 4 4 3 3 4 3 3 3 3 2 2 2 3 2 1 1 1 2 1 3 3 2 1 2 2 2 2 2 2 2 1
3 2 2 3 3 3 3 3 4 3 4 5 4 4 5 5 4 4 4 4 3 3 3 3 3 2 3 2 1 1 1 0 1 1 1 2 2 2 3 2 2 2 2 2 2 2 2 2 2
1 1 2 2 1 3 2 2 3 4 5 7 7 6 6 4 3 4 4 4 4 3 3 3 3 3 3 2 1 1 1 1 1 0 1 2 1 2 2 2 2 2 2 3 2 2 2 1 1
2 3 4 3 1 0 1 3 3 2 1 2 4 5 5 7 6 5 4 4 4 4 3 3 3 3 3 2 2 2 2 2 2 1 1 1 1 1 2 2 2 2 2 2 1 2 3 2 1
3 3 3 2 1 2 2 2 5 3 1 1 2 3 4 5 6 6 5 4 4 4 4 3 3 3 3 3 3 3 2 1 1 1 1 0 1 1 1 2 3 2 2 2 2 2 1 3 1
5 3 2 2 2 1 1 2 5 1 1 3 3 2 3 4 5 6 6 6 5 4 3 3 3 3 2 3 4 3 2 1 0 0 1 0 0 0 1 1 2 2 2 2 2 2 2 2 2
1 2 3 3 3 2 4 4 4 3 4 3 2 2 3 4 4 4 3 3 2 2 2 2 3 2 2 3 3 3 3 2 2 1 0 0 1 1 0 1 1 1 1 2 2 2 2 2 2
4 5 3 3 2 5 2 3 5 5 3 4 4 3 3 4 4 4 3 3 2 2 2 2 3 2 1 2 2 2 3 3 3 2 2 1 0 0 1 1 1 1 1 2 2 2 2 1 2
2 6 5 3 3 4 1 3 4 2 1 2 3 4 4 4 4 4 4 3 2 2 2 2 3 2 2 2 1 2 2 2 1 2 2 2 2 1 1 0 1 1 2 2 1 1 1 1 1
2 2 5 5 1 1 2 1 3 3 3 3 4 4 4 4 4 4 3 3 2 3 2 3 4 3 2 2 2 1 1 1 1 1 1 1 1 1 1 1 1 1 1 1 2 1 1 1 1
3 4 4 3 2 3 3 2 3 2 1 1 3 3 3 3 3 3 3 2 2 2 2 2 3 3 2 1 1 1 1 1 1 1 1 1 1 1 1 1 1 1 1 1 2 1 0 1 0
1 1 3 3 4 4 3 5 3 5 4 3 2 3 4 4 3 3 2 2 2 2 2 2 2 2 2 1 1 1 1 0 1 1 1 1 1 1 1 1 1 1 1 1 1 1 1 1 0
4 4 5 3 3 3 3 6 2 3 3 3 3 2 2 3 3 2 2 2 2 2 2 1 1 1 1 1 1 1 1 1 1 1 0 1 1 1 1 1 1 1 1 1 1 1 1 1 0
Wind_Direction
324 337 73 57 55 56 59 7 92 54 58 54 69 79 81 67 88 123 182 134 133 128 112 98 96 94 90 88 87 85 82 80 78 76 77 79 85 88 88 85 82 79 78 81 86 86 86 84 85
333 358 57 57 79 79 43 5 73 91 139 122 78 76 77 71 82 115 125 140 131 126 115 106 104 100 95 94 91 88 86 83 80 81 82 81 83 87 88 87 84 81 81 82 84 84 82 79 81
320 50 74 68 87 125 141 170 104 85 99 88 76 56 72 102 111 130 147 143 124 118 114 114 110 107 102 99 97 95 90 86 83 85 86 86 86 87 89 89 86 83 83 84 84 82 79 76 78
56 45 56 73 91 152 159 165 116 92 58 56 91 65 52 98 138 135 138 135 125 122 118 120 116 114 111 107 103 99 95 91 88 88 89 89 88 89 89 88 87 85 83 84 82 80 79 77 76
62 69 64 66 75 113 140 132 106 96 83 73 88 91 59 25 112 127 136 134 131 131 128 127 118 117 117 113 107 103 101 95 92 92 91 89 88 88 88 87 87 87 85 83 80 78 76 75 76
56 67 81 88 83 66 77 107 100 96 106 107 97 102 95 107 122 140 139 139 139 138 132 123 121 119 118 117 113 108 104 99 96 97 94 92 91 91 88 88 88 87 86 83 78 73 73 74 77
95 89 113 123 97 78 94 106 106 113 116 127 121 104 127 154 153 142 137 137 135 131 127 119 121 118 118 118 116 114 111 107 104 104 100 97 96 94 90 88 89 86 84 81 77 72 71 73 75
121 96 82 95 109 108 127 102 114 117 118 128 117 130 165 192 159 130 124 127 127 127 134 136 127 115 111 111 116 117 118 115 111 110 106 97 92 91 89 85 87 86 84 81 76 74 72 71 74
87 79 100 150 138 137 112 98 81 79 92 74 92 148 163 157 134 121 116 114 129 139 147 145 142 136 131 126 119 112 113 113 112 110 112 97 70 65 77 79 86 85 84 80 71 68 72 71 74
86 110 177 181 155 137 113 110 116 89 77 72 70 88 121 132 132 133 136 141 150 162 165 160 159 158 151 133 110 91 94 95 102 104 102 91 80 65 76 69 70 74 73 68 64 60 63 64 65
110 147 161 114 131 123 107 92 93 113 107 146 145 141 141 128 126 136 144 152 161 165 158 162 170 164 156 135 128 103 84 83 95 113 106 96 79 62 55 48 47 45 50 43 42 46 51 60 68
103 135 132 117 110 111 115 108 85 110 164 158 145 142 136 131 136 144 145 145 142 138 144 160 165 153 159 144 138 132 122 115 125 131 118 108 95 76 66 57 43 41 37 41 41 47 55 62 67
110 134 118 116 105 114 101 103 117 115 135 126 125 126 136 141 137 136 141 131 120 119 133 150 159 153 153 141 146 135 138 141 142 131 127 122 120 114 105 90 62 49 49 55 54 60 65 70 69
150 132 120 110 111 113 99 74 78 152 132 124 128 136 142 143 133 113 116 119 124 121 128 137 133 143 138 136 138 140 142 132 118 121 131 128 127 124 110 92 76 53 62 71 78 82 86 81 78
120 98 20 8 130 157 101 51 82 185 131 131 136 141 136 136 130 136 151 146 146 136 115 123 130 121 123 131 140 134 133 116 104 106 123 118 123 125 116 105 81 48 57 73 77 74 81 83 78
68 81 181 275 135 159 114 171 250 168 128 136 145 144 139 143 145 146 142 140 139 128 112 116 119 111 104 106 111 115 119 110 105 98 103 113 114 120 118 110 93 82 73 77 87 81 83 73 70
34 138 213 272 281 151 135 187 240 176 139 149 161 159 153 143 128 130 132 135 135 135 126 107 105 113 109 103 97 94 94 97 103 101 98 104 110 112 113 105 84 83 75 69 93 86 102 100 86
215 206 210 218 252 134 150 195 220 178 148 163 170 167 159 154 166 154 136 126 123 121 118 113 110 119 118 99 73 69 66 62 74 94 101 102 104 105 102 92 74 78 76 57 68 81 76 101 119
184 189 226 232 220 151 187 210 218 203 159 163 175 173 170 177 179 149 137 126 112 100 104 111 110 103 108 102 107 106 96 56 46 71 94 106 108 107 102 98 86 87 89 81 77 91 73 53 79
167 176 250 264 228 169 190 247 242 207 191 182 181 181 181 173 146 140 140 136 134 139 133 120 130 127 129 143 154 152 151 178 176 84 55 78 103 121 119 116 115 109 94 70 61 82 91 59 67
232 189 211 222 302 358 124 320 303 284 236 175 179 180 180 173 168 162 153 156 147 149 160 154 156 148 144 129 99 77 59 35 30 21 23 26 94 108 117 129 125 122 119 115 88 99 120 119 42
249 233 209 198 155 253 183 250 282 260 283 213 200 184 185 181 168 165 162 162 170 177 171 160 159 153 147 133 125 135 138 155 225 231 233 303 102 122 125 135 135 134 129 125 116 93 115 129 123
223 228 208 203 179 251 258 181 277 294 246 249 226 189 177 170 167 172 178 179 181 171 162 153 145 148 142 140 144 146 138 165 161 80 53 6 350 64 132 136 133 137 140 139 116 98 100 115 129
200 49 30 42 70 274 239 179 266 241 221 222 214 176 168 156 153 159 174 165 153 137 124 124 121 111 132 133 134 146 151 148 130 123 107 344 342 343 51 132 127 132 131 132 130 138 126 124 120
75 83 34 6 3 258 223 166 243 251 220 192 182 171 160 143 134 132 121 118 118 115 126 127 122 102 97 123 144 163 168 169 175 185 190 193 358 341 331 91 114 118 126 135 131 135 136 142 127
178 140 157 197 224 275 321 204 249 275 166 138 135 136 126 121 129 131 132 130 135 137 140 134 133 125 132 137 162 164 164 171 191 193 192 197 201 214 207 125 137 130 123 124 130 134 151 139 147
144 183 177 150 217 268 279 285 322 33 54 80 94 105 120 123 120 125 132 136 143 137 140 148 143 133 143 140 137 136 160 183 198 193 195 197 200 189 163 159 145 124 117 120 129 122 167 143 161
160 156 93 122 171 252 275 249 236 248 255 139 119 127 134 127 119 117 130 143 134 135 126 128 132 137 137 144 146 133 165 194 194 158 185 204 193 165 156 152 143 132 111 107 113 121 119 114 166
130 111 116 139 167 175 238 261 225 191 182 167 165 152 143 143 141 136 133 131 119 103 106 102 107 120 127 146 144 128 137 134 132 148 174 171 156 151 150 166 145 152 147 129 119 132 115 108 24
179 179 149 162 235 181 191 262 293 165 153 142 140 122 119 126 124 112 107 96 97 107 104 109 101 101 165 149 126 147 136 107 99 97 111 115 117 142 141 133 129 148 179 157 142 160 156 158 173